Starlink 4286

operational
NORAD ID: 52990 Int'l Des: 2022-076 Owner: SPXS Country: US Constellation: starlink
LEOCIRCULAR

Über Starlink 4286

Beschreibung wird geladen...

Live-Position

3D-Globus wird geladen...

Nächste Überflüge

Höhenverlauf

Altitude vs Time

uPlot chart will show altitude changes over time

Zweizeiliger Elementsatz

1 52990U 22076E 25260.12844390 -.00000904 00000-0 -38735-4 0 9993
2 52990 53.2172 163.2646 0001489 94.8184 265.2978 15.08831171176504
Epoch: 17. Sept. 2025 • Age: 13 hours

Aktueller Status

Höhe 544.8 km
Geschwindigkeit 7.60 km/s
Subsatellitenpunkt 50.47°N, 13.63°W
Startdatum 7. Juli 2022
Alter 3.1 years
Typ internet

Technische Details

Klassifizierung Payload
Masse 297.00 kg
Trockenmasse 275.00 kg
Gesamtmasse 297.00 kg
Länge 0.20 m
Durchmesser 2.80 m
Spannweite 9.00 m
Form Box + pan
Hersteller SPXS
Bus-Typ Starlink
Phasenstatus In Orbit
Besitzer/Staat SPXS/US

Große Konstellationen

Loading constellations...